Regional Weather Roundup
Issued by NWS State College, PA

Home | Current Version | Previous Version | Text Only | Print | Product List | Glossary On
Versions: 1 2 3 4 5 6 7 8 9 10 11 12 13 14 15 16 17 18 19 20 21 22 23 24 25 26 27 28 29 30 31 32 33 34 35 36 37 38 39 40 41 42 43 44 45 46 47 48 49 50
000
ASUS41 KCTP 250103
RWRCTP

REGIONAL WEATHER ROUNDUP
NATIONAL WEATHER SERVICE STATE COLLEGE PA
900 PM EDT THU JUL 24 2014

Note: "fair" indicates few or no clouds below 12,000 feet with no
significant weather and/or obstructions to visibility.

* = STATION THAT DOES NOT REPORT PRECIPITATION /E.G. RAIN...SNOW...ETC/
    THUNDER OR FOG.

PAZ002>004-007>009-013>016-020>023-029>032-250200-
WESTERN PENNSYLVANIA

CITY           SKY/WX    TMP DP  RH WIND       PRES   REMARKS
ERIE           CLEAR     66  47  50 CALM      30.03R
MEADVILLE      CLEAR     61  47  59 CALM      30.04S
FRANKLIN*      CLEAR     61  46  59 CALM      30.04S
NEW CASTLE       N/A     62  51  67 CALM      30.04R
BEAVER COUNTY  CLEAR     64  50  59 N5        30.02S
BUTLER*        CLEAR     64  50  59 N3        30.03R
PITTSBURGH INT PTCLDY    69  52  54 N15       30.01R
PITTSBURGH     CLEAR     68  50  52 N6        29.99S
INDIANA*       CLEAR     66  54  63 CALM      30.03F
LATROBE        CLEAR     68  55  64 CALM      30.00R
WASHINGTON CO* CLEAR     64  52  63 NW3       30.01S
$$

PAZ004>006-010>012-017>019-024>028-033>037-041-042-045-046-049>053-250200-
CENTRAL PENNSYLVANIA

CITY           SKY/WX    TMP DP  RH WIND       PRES   REMARKS
BRADFORD       CLEAR     58  49  72 N3        30.03F
DUBOIS         CLEAR     64  50  60 N8        30.01S
CLEARFIELD     CLEAR     62  54  74 N5        30.00R
JOHNSTOWN      CLEAR     63  51  65 N5        30.01S
ALTOONA        CLEAR     64  56  75 N5        29.99R
STATE COLLEGE  PTCLDY    66  52  59 CALM      29.98S
WILLIAMSPORT   CLEAR     69  50  50 N3        29.95S
SELINSGROVE    PTCLDY    63  59  87 N3        29.96R
FT INDIANTOWN  PTCLDY    67  55  66 N5        29.94S
CAPITAL CITY   MOCLDY    73  52  47 N6        29.94R
HARRISBURG     MOCLDY    73  53  49 N5        29.93R
YORK           MOCLDY    64  58  80 CALM      29.93S
$$

PAZ038>040-043-044-047-048-054-055-060>062-067>071-250200-
EASTERN PENNSYLVANIA

CITY           SKY/WX    TMP DP  RH WIND       PRES   REMARKS
SCRANTON       PTCLDY    67  49  52 N7        29.96R
MOUNT POCONO   MOCLDY    61  32  33 N5        29.98R
ALLENTOWN      MOCLDY    70  53  54 N6        29.92R
QUAKERTOWN*    MOCLDY    70  54  56 N5        29.93S
READING        MOCLDY    71  55  56 N7        29.92S
LANCASTER      MOCLDY    69  53  56 N8        29.93R
COATESVILLE    CLOUDY    70  55  60 N6        29.93R
POTTSTOWN      CLOUDY    71  54  54 N7        29.93R
BLUE BELL      CLOUDY    73  55  53 CALM      29.90S
DOYLESTOWN     CLOUDY    70  56  61 N6        29.91R
WILLOW GROVE   NOT AVBL
NORTH PHILA    CLOUDY    75  53  46 N8        29.91R
PHILADELPHIA   CLOUDY    77  53  43 N10       29.89S
$$


USA.gov is the U.S. government's official web portal to all federal, state and local government web resources and services.